"TOA5","AWS1","CR1000","7964","CR1000.Std.14","CPU:AWS1_114.CR1","64363","TBL110"
"TIMESTAMP","RECORD","Wind_spd_WVc(1)","Wind_spd_WVc(2)","Air_Temp_Avg","Humidity_Avg","SW_upper_Wm2_Avg","Rain_Tot","Press_Avg","Issui_Tot","Depth_cm","SR50A_Raw","Quality","Ground_Temp_Avg(1)","Ground_Temp_Avg(2)","SW_lower_Wm2_Avg","Albedo_Avg","SWC_per(1)","SWC_per(2)","Period(1)","Period(2)"
"TS","RN","","","","","","","","","","","","","","","","","","",""
"","","WVc","WVc","Avg","Avg","Avg","Tot","Avg","Tot","Smp","Smp","Smp","Avg","Avg","Avg","Avg","Smp","Smp","Smp","Smp"
"2013-10-11 00:00:00",99133,0.237,138.3,15.45,88.4,0,0,870.0771,0,-7.723,3.169,191,16.47,16.59,0.6894505,0,44.51,50.17,31.9,33.34
"2013-10-11 00:10:00",99134,0.134,144.4,15.95,84.2,0,0,869.9803,0,-42.16,3.499,288,16.49,16.61,1.291785,0,44.51,50.17,31.9,33.34
"2013-10-11 00:20:00",99135,0.169,86,16.35,81.3,0,0,869.8771,0,318,0,0,16.51,16.61,1.019023,0,44.51,50.17,31.9,33.34
"2013-10-11 00:30:00",99136,0.362,18.94,16.29,82.2,0,0,869.8771,0,-1.722,3.106,262,16.45,16.6,0.7121702,0,44.51,50.17,31.9,33.34
"2013-10-11 00:40:00",99137,0.46,83.5,15.74,85.7,0,0,869.8348,0,-1.546,3.109,249,16.36,16.6,0.04545696,0,44.51,50.17,31.9,33.34
"2013-10-11 00:50:00",99138,0.312,117.3,15.05,89.6,0,0,869.8291,0,-1.722,3.114,249,16.39,16.58,0,0,44.46,50.17,31.89,33.34
"2013-10-11 01:00:00",99139,0.485,116,14.84,92.2,0,0,869.8287,0,-1.098,3.107,294,16.32,16.56,0.07197026,0,44.51,50.17,31.9,33.34
"2013-10-11 01:10:00",99140,0.572,47.08,15.23,90.5,0,0,869.8347,0,-0.466,3.098,213,16.26,16.56,0.6250172,0,44.51,50.22,31.9,33.35
"2013-10-11 01:20:00",99141,0.318,34.13,15.86,86.1,0,0,869.6317,0,-1.065,3.101,221,16.28,16.57,1.155368,0,44.51,50.17,31.9,33.34
"2013-10-11 01:30:00",99142,0.531,15.76,15.84,85.8,0,0,869.4434,0,-0.092,3.092,218,16.26,16.56,0.6705003,0,44.51,50.22,31.9,33.35
"2013-10-11 01:40:00",99143,0.316,18.37,15.95,85.2,0,0,869.3323,0,-0.33,3.095,224,16.23,16.55,0.5189785,0,44.51,50.22,31.9,33.35
"2013-10-11 01:50:00",99144,0.371,11.44,15.93,85.3,0,0,869.2887,0,-0.188,3.093,222,16.2,16.52,0.5606332,0,44.51,50.22,31.9,33.35
"2013-10-11 02:00:00",99145,0.41,356.1,16.11,84.2,0,0,869.0833,0,-0.404,3.093,214,16.17,16.51,0.5985027,0,44.51,50.22,31.9,33.35
"2013-10-11 02:10:00",99146,0.44,59.58,16.2,83.5,0,0,869.0504,0,-0.329,3.093,224,16.16,16.51,0.473493,0,44.51,50.17,31.9,33.34
"2013-10-11 02:20:00",99147,0.471,0.466,16.17,83.5,0,0,868.9641,0,-0.16,3.09,218,16.11,16.5,0.352271,0,44.51,50.17,31.9,33.34
"2013-10-11 02:30:00",99148,0.724,26.53,16.33,83,0,0,868.8223,0,-0.418,3.093,219,16.08,16.5,0.2462079,0,44.51,50.22,31.9,33.35
"2013-10-11 02:40:00",99149,0.491,29.26,16.21,84.2,0,0,868.7828,0,-0.377,3.094,219,16.12,16.49,0.01893877,0,44.56,50.22,31.91,33.35
"2013-10-11 02:50:00",99150,0.404,115.8,16.16,84.4,0,0,868.4686,0,-1.093,3.101,214,16.12,16.49,0.03408943,0,44.56,50.22,31.91,33.35
"2013-10-11 03:00:00",99151,0.496,116.6,16.13,84.4,0,0,868.4775,0,0.369,3.085,338,16.09,16.49,0.159075,0,44.51,50.17,31.9,33.34
"2013-10-11 03:10:00",99152,0.455,60.73,16.36,83.3,0,0,868.2883,0,1.093,3.078,476,15.96,16.48,0.2120978,0,44.51,50.22,31.9,33.35
"2013-10-11 03:20:00",99153,0.348,76.81,16.43,83.1,0,0,868.2712,0,0.28,3.085,240,15.94,16.46,0.2651137,0,44.51,50.22,31.9,33.35
"2013-10-11 03:30:00",99154,0.371,340.7,16.55,82.5,0,0,868.2509,0,1.004,3.078,370,15.94,16.41,0.5074937,0,44.51,50.17,31.9,33.34
"2013-10-11 03:40:00",99155,0.514,343.4,16.29,85,0,0,868.2448,0,-0.198,3.092,221,15.94,16.44,1.253576,0,44.56,50.22,31.91,33.35
"2013-10-11 03:50:00",99156,0.484,2.722,16.22,85.3,0,0,868.2045,0,-0.084,3.09,229,15.95,16.45,1.564103,0,44.56,50.28,31.91,33.37
"2013-10-11 04:00:00",99157,0.249,77.4,16.31,84.4,0,0,867.9747,0,-0.44,3.093,236,15.93,16.45,1.685266,0,44.51,50.22,31.9,33.35
"2013-10-11 04:10:00",99158,0.235,119.4,16.57,83.1,0,0,868.0023,0,-0.893,3.096,288,15.93,16.45,1.889775,0,44.51,50.22,31.9,33.35
"2013-10-11 04:20:00",99159,0.552,146.9,16.52,83.3,0,0,867.8508,0,0.138,3.086,380,15.92,16.45,1.920071,0,44.51,50.22,31.9,33.35
"2013-10-11 04:30:00",99160,0.418,166.3,16.7,82.8,0,0,867.7312,0,-4.087,3.127,230,15.88,16.45,2.079145,0,44.51,50.22,31.9,33.35
"2013-10-11 04:40:00",99161,0.339,332.8,16.46,85.4,0,0,867.7628,0,-0.035,3.09,410,15.85,16.44,1.586795,0,44.56,50.22,31.91,33.35
"2013-10-11 04:50:00",99162,0.415,53.88,16.16,88.6,0,0,867.6122,0,-1.277,3.103,237,15.84,16.41,1.170213,0,44.51,50.22,31.9,33.35
"2013-10-11 05:00:00",99163,0.515,284.2,16.25,88.5,0,0.5,867.5077,0,-4.18,3.13,214,15.84,16.36,1.492127,0,44.56,50.22,31.91,33.35
"2013-10-11 05:10:00",99164,0.55,23.08,16.01,91,0,0,867.7148,0,-1.476,3.104,213,15.84,16.38,0.8824093,0,44.56,50.22,31.91,33.35
"2013-10-11 05:20:00",99165,0.633,34.27,15.96,92,0,0.5,867.7312,0,-0.205,3.094,416,15.84,16.38,0.7536278,0,44.56,50.28,31.91,33.37
"2013-10-11 05:30:00",99166,0.458,18.4,15.83,93.5,0,0,867.8876,0,-1.493,3.107,220,15.83,16.39,0.5301799,0,44.56,50.22,31.91,33.35
"2013-10-11 05:40:00",99167,0.52,50.47,15.69,94.4,0,0,867.8201,0,-4.71,3.138,222,15.84,16.41,0.4355127,0,44.56,50.28,31.91,33.37
"2013-10-11 05:50:00",99168,0.433,17.92,15.83,95,0.133547,0,867.7291,0,0.254,3.089,366,15.84,16.43,0.5150561,0.916,44.56,50.22,31.91,33.35
"2013-10-11 06:00:00",99169,0.515,4.41,15.95,95.3,0.8955648,0.5,867.6728,0,-1.126,3.101,246,15.85,16.44,0.5112786,0.788,44.51,50.28,31.9,33.37
"2013-10-11 06:10:00",99170,0.61,16.11,16.13,95.4,2.887033,0,867.435,0,-1.615,3.106,211,15.85,16.45,0.7006469,0.252,44.51,50.28,31.9,33.37
"2013-10-11 06:20:00",99171,0.672,33.33,16.24,96.5,4.811579,0,867.3053,0,-1.106,3.099,235,15.84,16.44,0.8672604,0.178,44.56,50.28,31.91,33.37
"2013-10-11 06:30:00",99172,0.54,94.6,16.48,96.7,7.128858,0,867.2341,0,-1.57,3.104,230,15.84,16.44,1.155064,0.162,44.56,50.28,31.91,33.37
"2013-10-11 06:40:00",99173,0.642,42.51,16.4,97.1,7.792474,0,867.2237,0,-1.053,3.099,213,15.83,16.43,1.011132,0.13,44.56,50.28,31.91,33.37
"2013-10-11 06:50:00",99174,0.785,47.64,16.5,97.6,16.83772,0.5,867.3979,0,-1.765,3.105,222,15.83,16.43,2.037393,0.122,44.56,50.28,31.91,33.37
"2013-10-11 07:00:00",99175,0.84,96.2,16.43,97.9,15.35696,0,867.4841,0,-2.778,3.116,218,15.83,16.43,1.787447,0.116,44.56,50.28,31.91,33.37
"2013-10-11 07:10:00",99176,0.745,66.43,16.31,98.2,21.13445,0,867.5178,0,-2.856,3.117,217,15.84,16.4,2.400933,0.113,44.56,50.28,31.91,33.37
"2013-10-11 07:20:00",99177,0.693,45.56,16.21,98.3,26.85304,0,867.482,0,-3.735,3.126,212,15.88,16.34,3.018207,0.113,44.56,50.28,31.91,33.37
"2013-10-11 07:30:00",99178,0.639,60.87,16.25,98.5,51.0196,0,867.4715,0,-2.96,3.118,216,15.9,16.3,5.460795,0.107,44.56,50.28,31.91,33.37
"2013-10-11 07:40:00",99179,0.682,33.08,16.3,98.4,46.1533,0,867.4756,0,-0.64,3.095,227,15.9,16.27,4.995,0.107,44.61,50.28,31.93,33.37
"2013-10-11 07:50:00",99180,0.661,38.91,16.39,98.4,55.30462,0,867.4715,0,-2.335,3.111,225,15.9,16.27,5.888722,0.106,44.61,50.33,31.93,33.38
"2013-10-11 08:00:00",99181,0.627,18.28,16.39,98.3,44.64117,0.5,867.5198,0,-2.081,3.109,227,15.93,16.26,4.926835,0.109,44.67,50.28,31.94,33.37
"2013-10-11 08:10:00",99182,0.687,43.15,16.45,98.2,87.22034,0,867.5494,0,-4.031,3.127,197,15.92,16.26,9.592368,0.11,44.67,50.33,31.94,33.38
"2013-10-11 08:20:00",99183,0.925,101.2,16.46,98.3,74.18855,0,867.4968,0,-1.511,3.103,209,15.91,16.26,7.664806,0.103,44.72,50.33,31.96,33.38
"2013-10-11 08:30:00",99184,0.643,45.85,16.53,98.4,112.4081,0,867.5325,0,-1.765,3.105,224,15.91,16.26,12.58785,0.111,44.72,50.33,31.96,33.38
"2013-10-11 08:40:00",99185,0.823,48.68,16.63,98.4,172.685,0,867.7261,0,-1.37,3.1,208,15.98,16.26,19.98757,0.115,44.77,50.33,31.97,33.38
"2013-10-11 08:50:00",99186,0.786,38.68,16.77,97,177.406,0,867.7135,0,-2.067,3.107,203,16.06,16.26,20.14284,0.111,44.82,50.33,31.98,33.38
"2013-10-11 09:00:00",99187,0.885,26.76,16.73,95.5,167.0097,0,867.7346,0,-2.115,3.107,202,16.03,16.26,19.07491,0.113,44.82,50.33,31.98,33.38
"2013-10-11 09:10:00",99188,0.697,51.73,17.04,94,322.5625,0,867.7093,0,-1.68,3.1,217,16,16.26,41.0355,0.126,44.87,50.33,32,33.38
"2013-10-11 09:20:00",99189,0.638,33.13,17.28,93,155.7374,0,867.7283,0,-1.49,3.1,201,16.02,16.26,16.83682,0.105,44.93,50.33,32.01,33.38
"2013-10-11 09:30:00",99190,0.712,57.96,16.84,94.3,136.2447,0,867.7535,0,-1.758,3.104,206,16.05,16.26,15.55304,0.114,44.98,50.33,32.02,33.38
"2013-10-11 09:40:00",99191,0.828,44.91,16.74,94.9,278.4044,0,867.7261,0,-1.696,3.102,232,16.09,16.26,34.05613,0.121,44.98,50.33,32.02,33.38
"2013-10-11 09:50:00",99192,0.878,55.45,17.11,91.4,357.4946,0,867.7745,0,0.358,3.08,218,16.12,16.26,45.3905,0.126,45.03,50.33,32.04,33.38
"2013-10-11 10:00:00",99193,1.035,44.24,17.35,88,281.7822,0,867.7409,0,-1.649,3.099,236,16.17,16.26,38.02107,0.134,45.08,50.33,32.05,33.38
"2013-10-11 10:10:00",99194,0.909,41.06,17.25,86.8,234.8159,0,867.724,0,-1.474,3.098,217,16.21,16.26,34.33258,0.147,45.08,50.39,32.05,33.39
"2013-10-11 10:20:00",99195,0.782,61.82,17.14,84.1,275.1798,0,867.7261,0,-0.998,3.095,234,16.29,16.26,33.87057,0.123,45.14,50.39,32.06,33.39
"2013-10-11 10:30:00",99196,0.728,31.09,16.86,84.2,281.6251,0,867.7261,0,-1.473,3.101,201,16.35,16.26,31.84833,0.118,45.14,50.39,32.06,33.39
"2013-10-11 10:40:00",99197,0.701,73.52,16.65,85,289.8534,0,867.7283,0,-1.188,3.098,219,16.33,16.26,34.85139,0.121,45.14,50.39,32.06,33.39
"2013-10-11 10:50:00",99198,0.959,91.9,17.27,81.8,593.8187,0,867.7619,0,-1.308,3.095,225,16.43,16.26,50.13934,0.101,45.19,50.39,32.08,33.39
"2013-10-11 11:00:00",99199,0.737,44.77,17.63,75.59,103.3903,0,867.6924,0,-1.895,3.1,230,16.47,16.26,48.82906,0.494,45.19,50.39,32.08,33.39
"2013-10-11 11:10:00",99200,0.701,57.01,17.8,73.63,346.3049,0,867.5346,0,-2.682,3.106,229,16.49,16.26,59.10308,0.195,45.24,50.39,32.09,33.39
"2013-10-11 11:20:00",99201,0.62,20.09,18.11,72.61,771.4603,0,867.5198,0,-1.816,3.096,225,16.58,16.26,78.35219,0.103,45.29,50.39,32.1,33.39
"2013-10-11 11:30:00",99202,0.711,50.71,18.15,70.69,850.6173,0,867.4609,0,-2.905,3.107,225,16.61,16.26,93.31826,0.11,45.35,50.39,32.12,33.39
"2013-10-11 11:40:00",99203,0.979,77.54,18.28,63.65,821.6945,0,867.2883,0,-2.73,3.106,220,16.68,16.26,101.6268,0.124,45.29,50.39,32.1,33.39
"2013-10-11 11:50:00",99204,1.124,122.8,18.43,63.13,841.9883,0,867.2,0,-2.334,3.101,222,16.68,16.26,112.8514,0.134,45.35,50.39,32.12,33.39
"2013-10-11 12:00:00",99205,1.642,94.4,18.41,60.02,865.6287,0,867.1768,0,-1.96,3.096,203,16.65,16.26,122.9209,0.142,45.29,50.39,32.1,33.39
"2013-10-11 12:10:00",99206,0.896,106.4,18.78,61.32,763.6326,0,867.0211,0,-5.887,3.134,209,16.61,16.25,105.9023,0.133,45.35,50.39,32.12,33.39
"2013-10-11 12:20:00",99207,1.347,92.8,18.5,59.88,613.873,0,866.9138,0,-3.136,3.109,211,16.61,16.25,81.96495,0.118,45.35,50.39,32.12,33.39
"2013-10-11 12:30:00",99208,0.636,61.09,18.67,63.16,694.3968,0,866.7601,0,-4.608,3.12,219,16.64,16.25,96.34025,0.125,45.35,50.39,32.12,33.39
"2013-10-11 12:40:00",99209,0.888,36.14,18.51,64.76,316.624,0,866.6906,0,-5.415,3.132,235,16.63,16.23,36.44949,0.107,45.35,50.39,32.12,33.39
"2013-10-11 12:50:00",99210,0.76,116,17.86,67.56,236.0648,0,866.5306,0,-2.578,3.108,220,16.61,16.26,27.79628,0.116,45.4,50.39,32.13,33.39
"2013-10-11 13:00:00",99211,0.799,55.16,17.99,66.47,528.4319,0,866.4549,0,-1.714,3.095,240,16.66,16.24,71.78561,0.127,45.4,50.39,32.13,33.39
"2013-10-11 13:10:00",99212,0.619,76.53,18.28,65.51,237.738,0,866.417,0,-2.73,3.106,227,16.76,16.22,27.98563,0.116,45.35,50.39,32.12,33.39
"2013-10-11 13:20:00",99213,0.74,147.7,18.25,66.93,554.4012,0,866.2233,0,-2.286,3.101,257,16.76,16.23,66.48386,0.107,45.4,50.39,32.13,33.39
"2013-10-11 13:30:00",99214,0.926,95.6,18.36,64.54,345.6215,0,866.1728,0,-3.469,3.112,205,16.74,16.25,37.82037,0.102,45.45,50.39,32.15,33.39
"2013-10-11 13:40:00",99215,0.72,117,18.33,64.83,372.5452,0,866.036,0,-3.81,3.116,216,16.71,16.25,34.90819,0.089,45.45,50.39,32.15,33.39
"2013-10-11 13:50:00",99216,1.137,117.4,18.28,65.09,444.4008,0,865.9561,0,-4.581,3.123,244,16.81,16.3,29.72763,0.069,45.4,50.39,32.13,33.39
"2013-10-11 14:00:00",99217,0.988,76.69,18.19,65.69,185.599,0,865.8298,0,-2.102,3.099,235,16.8,16.34,20.50639,0.111,45.4,50.39,32.13,33.39
"2013-10-11 14:10:00",99218,1.023,122.5,18.44,64.96,154.0721,0,865.9076,0,-1.856,3.095,219,16.91,16.33,23.31631,0.151,45.4,50.39,32.13,33.39
"2013-10-11 14:20:00",99219,0.524,91.7,18.56,66.83,178.7768,0,865.8171,0,-2.826,3.103,289,16.91,16.29,25.14162,0.14,45.4,50.39,32.13,33.39
"2013-10-11 14:30:00",99220,0.641,119.9,18.52,65.38,157.2849,0,865.8698,0,-2.699,3.105,229,16.96,16.26,19.77929,0.126,45.4,50.39,32.13,33.39
"2013-10-11 14:40:00",99221,1.064,50.85,18.03,66.9,138.511,0,865.7792,0,-1.96,3.099,253,16.96,16.3,17.38972,0.124,45.4,50.39,32.13,33.39
"2013-10-11 14:50:00",99222,0.649,70.99,17.97,66.73,125.3967,0,865.7055,0,-3.977,3.119,298,17.07,16.34,15.50003,0.123,45.4,50.44,32.13,33.41
"2013-10-11 15:00:00",99223,0.434,113.6,18,68.43,168.7928,0,865.5435,0,-3.215,3.11,215,17.08,16.34,22.92247,0.135,45.4,50.39,32.13,33.39
"2013-10-11 15:10:00",99224,0.849,125.7,18.18,66.88,141.7473,0,865.3814,0,-2.102,3.099,236,17.18,16.33,17.8593,0.126,45.4,50.44,32.13,33.41
"2013-10-11 15:20:00",99225,0.897,110,18.1,66.5,163.4434,0,865.2067,0,-2.682,3.106,245,17.19,16.32,21.69549,0.132,45.4,50.44,32.13,33.41
"2013-10-11 15:30:00",99226,0.767,127.9,18.07,66.48,154.8812,0,864.9626,0,-0.966,3.088,282,17.17,16.3,20.59727,0.133,45.4,50.44,32.13,33.41
"2013-10-11 15:40:00",99227,0.707,127.1,18.11,65.21,88.7364,0,864.95,0,-3.612,3.115,236,17.3,16.3,10.84207,0.121,45.4,50.44,32.13,33.41
"2013-10-11 15:50:00",99228,0.68,122.3,17.77,66.41,50.14767,0,864.9899,0,-6.412,3.144,209,17.3,16.31,5.445648,0.108,45.4,50.44,32.13,33.41
"2013-10-11 16:00:00",99229,0.758,120.1,17.54,66.78,57.63369,0,864.9983,0,-3.585,3.118,251,17.3,16.3,7.289897,0.126,45.4,50.44,32.13,33.41
"2013-10-11 16:10:00",99230,0.774,114.7,17.43,66.37,54.45233,0,865.0026,0,-2.029,3.102,220,17.31,16.3,6.869545,0.125,45.4,50.44,32.13,33.41
"2013-10-11 16:20:00",99231,0.488,139,17.48,66.65,65.42606,0,864.8531,0,-2.554,3.108,226,17.32,16.31,8.479002,0.125,45.45,50.44,32.15,33.41
"2013-10-11 16:30:00",99232,0.357,83,17.31,67.68,18.51473,0,864.7605,0,-2.41,3.108,236,17.34,16.34,1.635967,0.079,45.4,50.44,32.13,33.41
"2013-10-11 16:40:00",99233,0.025,85.7,17.01,70.79,6.111355,0,864.7015,0,-2.162,3.107,246,17.37,16.35,0.05301743,0.006,45.4,50.44,32.13,33.41
"2013-10-11 16:50:00",99234,0.273,112.9,16.82,71.58,3.118519,0,864.6973,0,-2.019,3.107,244,17.37,16.35,0,0,45.4,50.44,32.13,33.41
"2013-10-11 17:00:00",99235,0.682,118.4,16.75,70.69,4.049362,0,864.6658,0,-2.012,3.106,228,17.37,16.36,0.2007089,0.042,45.4,50.5,32.13,33.42
"2013-10-11 17:10:00",99236,0.444,116.7,16.7,71.65,2.949632,0,864.6932,0,-2.122,3.108,270,17.32,16.37,0.5528961,0.262,45.45,50.44,32.15,33.41
"2013-10-11 17:20:00",99237,0.444,83.2,16.67,71.84,0,0,864.5269,0,-1.908,3.105,241,17.3,16.4,0.04544352,0,45.4,50.5,32.13,33.42
"2013-10-11 17:30:00",99238,0.591,113.7,16.68,72.46,0.003927606,0,864.449,0,-1.765,3.105,233,17.3,16.44,0.07573919,0.032,45.4,50.44,32.13,33.41
"2013-10-11 17:40:00",99239,0.316,100.5,16.69,72.19,0,0,864.4785,0,-1.933,3.105,226,17.3,16.44,0.1401175,0,45.4,50.5,32.13,33.42
"2013-10-11 17:50:00",99240,0.565,89.9,16.79,72.14,0,0,864.5332,0,-2.114,3.107,226,17.3,16.44,0.2878089,0,45.4,50.5,32.13,33.42
"2013-10-11 18:00:00",99241,0.789,110.4,16.66,73.56,0,0,864.4343,0,-2.431,3.111,216,17.28,16.44,0.3862699,0,45.4,50.5,32.13,33.42
"2013-10-11 18:10:00",99242,0.495,113.5,16.6,74.61,0,0,864.4301,0,-2.589,3.113,240,17.29,16.46,0.2613002,0,45.4,50.5,32.13,33.42
"2013-10-11 18:20:00",99243,0.501,119.2,16.57,74.96,0,0,864.2469,0,-2.795,3.115,217,17.23,16.5,0.1590523,0,45.4,50.55,32.13,33.43
"2013-10-11 18:30:00",99244,0.624,132.6,16.58,75.29,0,0,864.1733,0,-2.232,3.11,228,17.22,16.51,0.0189348,0,45.4,50.55,32.13,33.43
"2013-10-11 18:40:00",99245,0.479,111.4,16.45,76.97,0,0,864.1775,0,-1.908,3.108,200,17.22,16.52,1.450415,0,45.4,50.5,32.13,33.42
"2013-10-11 18:50:00",99246,0.201,60.74,16.02,80.7,0,0,864.1866,0,-0.512,3.097,268,17.24,16.54,1.984391,0,45.4,50.5,32.13,33.42
"2013-10-11 19:00:00",99247,0.433,42.75,15.5,84.9,0,0,864.201,0,-4.699,3.141,221,17.15,16.55,1.692784,0,45.45,50.5,32.15,33.42
"2013-10-11 19:10:00",99248,0.728,19.36,14.99,89.2,0,0.5,864.5279,0,-4.355,3.139,203,17.14,16.58,1.120973,0,45.45,50.55,32.15,33.43
"2013-10-11 19:20:00",99249,0.293,55.6,14.71,92.6,0,1,864.8801,0,-1.707,3.115,237,17.12,16.59,0.6059697,0,45.4,50.55,32.13,33.43
"2013-10-11 19:30:00",99250,0.524,146.3,14.4,94.7,0,0,864.7179,0,-1.975,3.119,210,17.14,16.6,0.5605434,0,45.45,50.55,32.15,33.43
"2013-10-11 19:40:00",99251,0.73,143.2,14.38,96.2,0,0,864.2409,0,-2.46,3.123,210,17.09,16.61,0.8900703,0,45.45,50.55,32.15,33.43
"2013-10-11 19:50:00",99252,0.737,145,14.58,95.6,0,0.5,864.2448,0,-2.503,3.122,212,17.13,16.6,1.136263,0,45.45,50.55,32.15,33.43
"2013-10-11 20:00:00",99253,0.805,143.5,14.82,93.6,0,0,863.9958,0,-1.403,3.111,212,17.11,16.59,1.412781,0,45.5,50.55,32.16,33.43
"2013-10-11 20:10:00",99254,0.477,162.1,14.81,93,0,1,863.9529,0,-7.513,3.17,196,17.07,16.59,1.10981,0,45.5,50.55,32.16,33.43
"2013-10-11 20:20:00",99255,0.425,56.15,14.78,93.6,0,2.5,864.3574,0,-1.873,3.116,258,17.02,16.59,0.9090763,0,45.56,50.61,32.17,33.45
"2013-10-11 20:30:00",99256,0.311,30.69,14.58,95.4,0,1,864.5283,0,-4.858,3.146,214,17.02,16.59,0.462114,0,46.45,50.55,32.4,33.43
"2013-10-11 20:40:00",99257,0.184,43.47,14.57,97,0,2,864.7692,0,-2.809,3.126,243,16.99,16.6,0.2537908,0,47.62,50.61,32.7,33.45
"2013-10-11 20:50:00",99258,0.118,62.19,14.58,98.2,0,1,864.8502,0,-3.679,3.134,242,16.95,16.64,0.2310663,0,48.81,50.61,33,33.45
"2013-10-11 21:00:00",99259,0.327,102.2,14.52,98.7,0,3,864.8231,0,-1.475,3.113,233,16.92,16.65,0.2272803,0,50.01,50.61,33.3,33.45
"2013-10-11 21:10:00",99260,0.526,95.1,14.43,98.9,0,0.5,864.7834,0,-1.074,3.11,231,16.87,16.68,0.2575856,0,50.5,50.61,33.42,33.45
"2013-10-11 21:20:00",99261,0.43,82.2,14.49,99.1,0,1,864.8859,0,-3.892,3.137,269,16.83,16.69,0.3030463,0,50.55,50.77,33.43,33.49
"2013-10-11 21:30:00",99262,0.415,52.09,14.5,99.2,0,0.5,865.0226,0,-0.398,3.103,376,16.81,16.68,0.2840963,0,50.44,51.38,33.41,33.64
"2013-10-11 21:40:00",99263,0.456,97.1,14.44,99.3,0,1,865.0657,0,-2.148,3.12,229,16.81,16.68,0.3522817,0,50.55,52.1,33.43,33.81
"2013-10-11 21:50:00",99264,0.461,81.8,14.53,99.4,0,0.5,865.149,0,-3.448,3.132,225,16.69,16.69,0.3977409,0,50.55,53.11,33.43,34.06
"2013-10-11 22:00:00",99265,0.502,86.1,14.55,99.4,0,0,865.2834,0,-2.421,3.122,248,16.68,16.68,0.3598524,0,50.39,54.29,33.39,34.34
"2013-10-11 22:10:00",99266,0.445,104.3,14.55,99.5,0,0,865.2649,0,-1.729,3.115,236,16.65,16.68,0.6856222,0,50.22,55.2,33.35,34.56
"2013-10-11 22:20:00",99267,0.58,62.01,14.68,99.5,0,0,865.1132,0,-1.773,3.115,226,16.6,16.7,0.7424339,0,50.06,55.66,33.31,34.67
"2013-10-11 22:30:00",99268,0.408,63.71,14.83,99.6,0.02357129,0,865.1523,0,-1.617,3.113,224,16.64,16.68,0.5719725,0.193,49.9,55.95,33.27,34.74
"2013-10-11 22:40:00",99269,0.539,88.3,14.87,99.7,0,0,864.9679,0,-1.768,3.114,219,16.64,16.72,0.7083414,0,49.79,56.06,33.24,34.76
"2013-10-11 22:50:00",99270,0.605,68.72,14.88,99.7,0,0,864.7998,0,-1.97,3.116,231,16.56,16.71,0.7651524,0,49.73,56.18,33.23,34.79
"2013-10-11 23:00:00",99271,0.687,71.23,14.92,99.7,0,0,864.8125,0,-1.501,3.111,222,16.5,16.71,0.575745,0,49.68,56.23,33.22,34.8
"2013-10-11 23:10:00",99272,0.391,60.19,14.95,99.6,0,0,864.7513,0,-2.118,3.117,216,16.49,16.7,0.4469537,0,49.62,56.29,33.2,34.82
"2013-10-11 23:20:00",99273,0.556,74.62,14.96,99.3,0,0,864.6127,0,-1.97,3.116,216,16.48,16.7,0.8143771,0,49.57,56.35,33.19,34.83
"2013-10-11 23:30:00",99274,0.475,49.43,14.9,99,0,0,864.7323,0,-2.016,3.116,210,16.5,16.7,0.659077,0,49.51,56.41,33.18,34.84
"2013-10-11 23:40:00",99275,0.58,54.14,14.87,99.2,0,0,864.5862,0,-1.943,3.116,214,16.49,16.67,0.4583193,0,49.46,56.41,33.16,34.84
"2013-10-11 23:50:00",99276,0.378,63.64,14.8,99.2,0,0,864.5228,0,-1.712,3.114,214,16.43,16.67,0.6060368,0,49.46,56.46,33.16,34.86
